Year,Month,Day,Hour,Minute,Value (Times are PST for temperature in C)
2014,09,12,00,00,12.50
2014,09,12,00,01,12.50
2014,09,12,00,02,12.50
2014,09,12,00,03,12.50
2014,09,12,00,04,12.50
2014,09,12,00,05,12.50
2014,09,12,00,06,12.40
2014,09,12,00,07,12.40
2014,09,12,00,08,12.40
2014,09,12,00,09,12.40
2014,09,12,00,10,12.40
2014,09,12,00,11,12.30
2014,09,12,00,12,12.30
2014,09,12,00,13,12.30
2014,09,12,00,14,12.30
2014,09,12,00,15,12.30
2014,09,12,00,16,12.30
2014,09,12,00,17,12.20
2014,09,12,00,18,12.20
2014,09,12,00,19,12.20
2014,09,12,00,20,12.10
2014,09,12,00,21,12.10
2014,09,12,00,22,12.00
2014,09,12,00,23,12.00
2014,09,12,00,24,11.90
2014,09,12,00,25,11.90
2014,09,12,00,26,11.80
2014,09,12,00,27,11.80
2014,09,12,00,28,11.80
2014,09,12,00,29,11.70
2014,09,12,00,30,11.70
2014,09,12,00,31,11.60
2014,09,12,00,32,11.60
2014,09,12,00,33,11.60
2014,09,12,00,34,11.40
2014,09,12,00,35,11.40
2014,09,12,00,36,11.40
2014,09,12,00,37,11.40
2014,09,12,00,38,11.30
2014,09,12,00,39,11.30
2014,09,12,00,40,11.20
2014,09,12,00,41,11.20
2014,09,12,00,42,11.10
2014,09,12,00,43,11.10
2014,09,12,00,44,11.10
2014,09,12,00,45,11.10
2014,09,12,00,46,11.00
2014,09,12,00,47,10.90
2014,09,12,00,48,10.90
2014,09,12,00,49,10.90
2014,09,12,00,50,10.90
2014,09,12,00,51,10.90
2014,09,12,00,52,10.90
2014,09,12,00,53,10.90
2014,09,12,00,54,10.90
2014,09,12,00,55,10.90
2014,09,12,00,56,10.90
2014,09,12,00,57,10.90
2014,09,12,00,58,10.90
2014,09,12,00,59,10.90
2014,09,12,01,00,10.90
2014,09,12,01,01,10.90
2014,09,12,01,02,10.90
2014,09,12,01,03,10.80
2014,09,12,01,04,10.80
2014,09,12,01,05,10.70
2014,09,12,01,06,10.70
2014,09,12,01,07,10.70
2014,09,12,01,08,10.60
2014,09,12,01,09,10.60
2014,09,12,01,10,10.60
2014,09,12,01,11,10.60
2014,09,12,01,12,10.60
2014,09,12,01,13,10.50
2014,09,12,01,14,10.40
2014,09,12,01,15,10.40
2014,09,12,01,16,10.40
2014,09,12,01,17,10.40
2014,09,12,01,18,10.40
2014,09,12,01,19,10.40
2014,09,12,01,20,10.40
2014,09,12,01,21,10.40
2014,09,12,01,22,10.40
2014,09,12,01,23,10.30
2014,09,12,01,24,10.30
2014,09,12,01,25,10.30
2014,09,12,01,26,10.30
2014,09,12,01,27,10.20
2014,09,12,01,28,10.20
2014,09,12,01,29,10.20
2014,09,12,01,30,10.20
2014,09,12,01,31,10.20
2014,09,12,01,32,10.10
2014,09,12,01,33,10.10
2014,09,12,01,34,10.20
2014,09,12,01,35,10.20
2014,09,12,01,36,10.10
2014,09,12,01,37,10.10
2014,09,12,01,38,10.20
2014,09,12,01,39,10.20
2014,09,12,01,40,10.20
2014,09,12,01,41,10.20
2014,09,12,01,42,10.20
2014,09,12,01,43,10.20
2014,09,12,01,44,10.20
2014,09,12,01,45,10.20
2014,09,12,01,46,10.30
2014,09,12,01,47,10.30
2014,09,12,01,48,10.30
2014,09,12,01,49,10.30
2014,09,12,01,50,10.30
2014,09,12,01,51,10.30
2014,09,12,01,52,10.30
2014,09,12,01,53,10.40
2014,09,12,01,54,10.40
2014,09,12,01,55,10.40
2014,09,12,01,56,10.40
2014,09,12,01,57,10.40
2014,09,12,01,58,10.40
2014,09,12,01,59,10.40
2014,09,12,02,00,10.40
2014,09,12,02,01,10.40
2014,09,12,02,02,10.30
2014,09,12,02,03,10.30
2014,09,12,02,04,10.30
2014,09,12,02,05,10.30
2014,09,12,02,06,10.30
2014,09,12,02,07,10.20
2014,09,12,02,08,10.20
2014,09,12,02,09,10.20
2014,09,12,02,10,10.20
2014,09,12,02,11,10.20
2014,09,12,02,12,10.10
2014,09,12,02,13,10.10
2014,09,12,02,14,10.10
2014,09,12,02,15,10.10
2014,09,12,02,16,10.10
2014,09,12,02,17,10.10
2014,09,12,02,18,10.10
2014,09,12,02,19,10.10
2014,09,12,02,20,10.00
2014,09,12,02,21,9.90
2014,09,12,02,22,9.90
2014,09,12,02,23,9.90
2014,09,12,02,24,9.90
2014,09,12,02,25,9.90
2014,09,12,02,26,9.90
2014,09,12,02,27,9.80
2014,09,12,02,28,9.80
2014,09,12,02,29,9.80
2014,09,12,02,30,9.70
2014,09,12,02,31,9.70
2014,09,12,02,32,9.70
2014,09,12,02,33,9.70
2014,09,12,02,34,9.70
2014,09,12,02,35,9.60
2014,09,12,02,36,9.60
2014,09,12,02,37,9.60
2014,09,12,02,38,9.60
2014,09,12,02,39,9.60
2014,09,12,02,40,9.50
2014,09,12,02,41,9.50
2014,09,12,02,42,9.50
2014,09,12,02,43,9.50
2014,09,12,02,44,9.60
2014,09,12,02,45,9.60
2014,09,12,02,46,9.60
2014,09,12,02,47,9.60
2014,09,12,02,48,9.60
2014,09,12,02,49,9.60
2014,09,12,02,50,9.60
2014,09,12,02,51,9.60
2014,09,12,02,52,9.60
2014,09,12,02,53,9.60
2014,09,12,02,54,9.60
2014,09,12,02,55,9.60
2014,09,12,02,56,9.60
2014,09,12,02,57,9.60
2014,09,12,02,58,9.60
2014,09,12,02,59,9.60
2014,09,12,03,00,9.60
2014,09,12,03,01,9.60
2014,09,12,03,02,9.60
2014,09,12,03,03,9.60
2014,09,12,03,04,9.60
2014,09,12,03,05,9.60
2014,09,12,03,06,9.60
2014,09,12,03,07,9.70
2014,09,12,03,08,9.70
2014,09,12,03,09,9.70
2014,09,12,03,10,9.70
2014,09,12,03,11,9.70
2014,09,12,03,12,9.70
2014,09,12,03,13,9.70
2014,09,12,03,14,9.70
2014,09,12,03,15,9.70
2014,09,12,03,16,9.80
2014,09,12,03,17,9.80
2014,09,12,03,18,9.80
2014,09,12,03,19,9.80
2014,09,12,03,20,9.80
2014,09,12,03,21,9.80
2014,09,12,03,22,9.80
2014,09,12,03,23,9.80
2014,09,12,03,24,9.80
2014,09,12,03,25,9.80
2014,09,12,03,26,9.80
2014,09,12,03,27,9.80
2014,09,12,03,28,9.80
2014,09,12,03,29,9.80
2014,09,12,03,30,9.70
2014,09,12,03,31,9.70
2014,09,12,03,32,9.70
2014,09,12,03,33,9.70
2014,09,12,03,34,9.60
2014,09,12,03,35,9.60
2014,09,12,03,36,9.50
2014,09,12,03,37,9.50
2014,09,12,03,38,9.50
2014,09,12,03,39,9.40
2014,09,12,03,40,9.40
2014,09,12,03,41,9.40
2014,09,12,03,42,9.30
2014,09,12,03,43,9.30
2014,09,12,03,44,9.30
2014,09,12,03,45,9.30
2014,09,12,03,46,9.20
2014,09,12,03,47,9.20
2014,09,12,03,48,9.20
2014,09,12,03,49,9.20
2014,09,12,03,50,9.20
2014,09,12,03,51,9.20
2014,09,12,03,52,9.20
2014,09,12,03,53,9.20
2014,09,12,03,54,9.20
2014,09,12,03,55,9.20
2014,09,12,03,56,9.20
2014,09,12,03,57,9.30
2014,09,12,03,58,9.40
2014,09,12,03,59,9.40
2014,09,12,04,00,9.50
2014,09,12,04,01,9.50
2014,09,12,04,02,9.50
2014,09,12,04,03,9.50
2014,09,12,04,04,9.50
2014,09,12,04,05,9.50
2014,09,12,04,06,9.50
2014,09,12,04,07,9.50
2014,09,12,04,08,9.50
2014,09,12,04,09,9.50
2014,09,12,04,10,9.50
2014,09,12,04,11,9.50
2014,09,12,04,12,9.50
2014,09,12,04,13,9.60
2014,09,12,04,14,9.60
2014,09,12,04,15,9.70
2014,09,12,04,16,9.70
2014,09,12,04,17,9.70
2014,09,12,04,18,9.80
2014,09,12,04,19,9.80
2014,09,12,04,20,9.80
2014,09,12,04,21,9.90
2014,09,12,04,22,9.90
2014,09,12,04,23,9.90
2014,09,12,04,24,9.90
2014,09,12,04,25,9.90
2014,09,12,04,26,9.90
2014,09,12,04,27,9.90
2014,09,12,04,28,9.90
2014,09,12,04,29,9.90
2014,09,12,04,30,10.00
2014,09,12,04,31,10.10
2014,09,12,04,32,10.10
2014,09,12,04,33,10.20
2014,09,12,04,34,10.20
2014,09,12,04,35,10.30
2014,09,12,04,36,10.40
2014,09,12,04,37,10.40
2014,09,12,04,38,10.40
2014,09,12,04,39,10.40
2014,09,12,04,40,10.40
2014,09,12,04,41,10.30
2014,09,12,04,42,10.20
2014,09,12,04,43,10.20
2014,09,12,04,44,10.10
2014,09,12,04,45,10.10
2014,09,12,04,46,9.90
2014,09,12,04,47,9.90
2014,09,12,04,48,9.90
2014,09,12,04,49,9.90
2014,09,12,04,50,9.90
2014,09,12,04,51,9.90
2014,09,12,04,52,9.90
2014,09,12,04,53,9.90
2014,09,12,04,54,9.90
2014,09,12,04,55,9.90
2014,09,12,04,56,9.90
2014,09,12,04,57,9.90
2014,09,12,04,58,9.90
2014,09,12,04,59,9.90
2014,09,12,05,00,9.90
2014,09,12,05,01,9.90
2014,09,12,05,02,9.90
2014,09,12,05,03,9.90
2014,09,12,05,04,9.80
2014,09,12,05,05,9.80
2014,09,12,05,06,9.80
2014,09,12,05,07,9.70
2014,09,12,05,08,9.70
2014,09,12,05,09,9.70
2014,09,12,05,10,9.70
2014,09,12,05,11,9.70
2014,09,12,05,12,9.70
2014,09,12,05,13,9.70
2014,09,12,05,14,9.70
2014,09,12,05,15,9.70
2014,09,12,05,16,9.80
2014,09,12,05,17,9.80
2014,09,12,05,18,9.80
2014,09,12,05,19,9.90
2014,09,12,05,20,9.90
2014,09,12,05,21,9.90
2014,09,12,05,22,9.90
2014,09,12,05,23,9.90
2014,09,12,05,24,9.80
2014,09,12,05,25,9.80
2014,09,12,05,26,9.70
2014,09,12,05,27,9.70
2014,09,12,05,28,9.70
2014,09,12,05,29,9.70
2014,09,12,05,30,9.70
2014,09,12,05,31,9.70
2014,09,12,05,32,9.70
2014,09,12,05,33,9.70
2014,09,12,05,34,9.70
2014,09,12,05,35,9.70
2014,09,12,05,36,9.80
2014,09,12,05,37,9.80
2014,09,12,05,38,9.70
2014,09,12,05,39,9.70
2014,09,12,05,40,9.70
2014,09,12,05,41,9.70
2014,09,12,05,42,9.70
2014,09,12,05,43,9.70
2014,09,12,05,44,9.60
2014,09,12,05,45,9.60
2014,09,12,05,46,9.60
2014,09,12,05,47,9.50
2014,09,12,05,48,9.50
2014,09,12,05,49,9.50
2014,09,12,05,50,9.50
2014,09,12,05,51,9.50
2014,09,12,05,52,9.60
2014,09,12,05,53,9.60
2014,09,12,05,54,9.70
2014,09,12,05,55,9.70
2014,09,12,05,56,9.80
2014,09,12,05,57,9.90
2014,09,12,05,58,10.00
2014,09,12,05,59,10.10
2014,09,12,06,00,10.30
2014,09,12,06,01,10.40
2014,09,12,06,02,10.50
2014,09,12,06,03,10.60
2014,09,12,06,04,10.60
2014,09,12,06,05,10.70
2014,09,12,06,06,10.80
2014,09,12,06,07,10.90
2014,09,12,06,08,10.90
2014,09,12,06,09,11.00
2014,09,12,06,10,11.10
2014,09,12,06,11,11.10
2014,09,12,06,12,11.20
2014,09,12,06,13,11.30
2014,09,12,06,14,11.30
2014,09,12,06,15,11.40
2014,09,12,06,16,11.40
2014,09,12,06,17,11.40
2014,09,12,06,18,11.50
2014,09,12,06,19,11.60
2014,09,12,06,20,11.60
2014,09,12,06,21,11.60
2014,09,12,06,22,11.60
2014,09,12,06,23,11.60
2014,09,12,06,24,11.60
2014,09,12,06,25,11.60
2014,09,12,06,26,11.60
2014,09,12,06,27,11.60
2014,09,12,06,28,11.60
2014,09,12,06,29,11.60
2014,09,12,06,30,11.60
2014,09,12,06,31,11.60
2014,09,12,06,32,11.60
2014,09,12,06,33,11.60
2014,09,12,06,34,11.60
2014,09,12,06,35,11.60
2014,09,12,06,36,11.50
2014,09,12,06,37,11.40
2014,09,12,06,38,11.40
2014,09,12,06,39,11.40
2014,09,12,06,40,11.40
2014,09,12,06,41,11.40
2014,09,12,06,42,11.40
2014,09,12,06,43,11.40
2014,09,12,06,44,11.40
2014,09,12,06,45,11.40
2014,09,12,06,46,11.40
2014,09,12,06,47,11.40
2014,09,12,06,48,11.40
2014,09,12,06,49,11.40
2014,09,12,06,50,11.40
2014,09,12,06,51,11.40
2014,09,12,06,52,11.40
2014,09,12,06,53,11.40
2014,09,12,06,54,11.50
2014,09,12,06,55,11.60
2014,09,12,06,56,11.60
2014,09,12,06,57,11.80
2014,09,12,06,58,11.80
2014,09,12,06,59,11.90
2014,09,12,07,00,12.00
2014,09,12,07,01,12.00
2014,09,12,07,02,12.10
2014,09,12,07,03,12.20
2014,09,12,07,04,12.20
2014,09,12,07,05,12.20
2014,09,12,07,06,12.20
2014,09,12,07,07,12.20
2014,09,12,07,08,12.30
2014,09,12,07,09,12.30
2014,09,12,07,10,12.30
2014,09,12,07,11,12.30
2014,09,12,07,12,12.30
2014,09,12,07,13,12.30
2014,09,12,07,14,12.30
2014,09,12,07,15,12.30
2014,09,12,07,16,12.30
2014,09,12,07,17,12.20
2014,09,12,07,18,12.20
2014,09,12,07,19,12.10
2014,09,12,07,20,12.10
2014,09,12,07,21,12.10
2014,09,12,07,22,12.10
2014,09,12,07,23,12.10
2014,09,12,07,24,12.10
2014,09,12,07,25,12.20
2014,09,12,07,26,12.20
2014,09,12,07,27,12.20
2014,09,12,07,28,12.20
2014,09,12,07,29,12.20
2014,09,12,07,30,12.20
2014,09,12,07,31,12.20
2014,09,12,07,32,12.20
2014,09,12,07,33,12.20
2014,09,12,07,34,12.20
2014,09,12,07,35,12.20
2014,09,12,07,36,12.20
2014,09,12,07,37,12.20
2014,09,12,07,38,12.20
2014,09,12,07,39,12.20
2014,09,12,07,40,12.20
2014,09,12,07,41,12.20
2014,09,12,07,42,12.20
2014,09,12,07,43,12.20
2014,09,12,07,44,12.20
2014,09,12,07,45,12.20
2014,09,12,07,46,12.20
2014,09,12,07,47,12.20
2014,09,12,07,48,12.20
2014,09,12,07,49,12.20
2014,09,12,07,50,12.20
2014,09,12,07,51,12.20
2014,09,12,07,52,12.20
2014,09,12,07,53,12.20
2014,09,12,07,54,12.20
2014,09,12,07,55,12.20
2014,09,12,07,56,12.20
2014,09,12,07,57,12.20
2014,09,12,07,58,12.30
2014,09,12,07,59,12.30
2014,09,12,08,00,12.30
2014,09,12,08,01,12.40
2014,09,12,08,02,12.40
2014,09,12,08,03,12.40
2014,09,12,08,04,12.50
2014,09,12,08,05,12.50
2014,09,12,08,06,12.50
2014,09,12,08,07,12.60
2014,09,12,08,08,12.60
2014,09,12,08,09,12.60
2014,09,12,08,10,12.70
2014,09,12,08,11,12.70
2014,09,12,08,12,12.80
2014,09,12,08,13,12.80
2014,09,12,08,14,12.90
2014,09,12,08,15,13.00
2014,09,12,08,16,13.10
2014,09,12,08,17,13.20
2014,09,12,08,18,13.30
2014,09,12,08,19,13.30
2014,09,12,08,20,13.30
2014,09,12,08,21,13.40
2014,09,12,08,22,13.50
2014,09,12,08,23,13.60
2014,09,12,08,24,13.60
2014,09,12,08,25,13.70
2014,09,12,08,26,13.80
2014,09,12,08,27,13.90
2014,09,12,08,28,14.00
2014,09,12,08,29,14.10
2014,09,12,08,30,14.20
2014,09,12,08,31,14.20
2014,09,12,08,32,14.30
2014,09,12,08,33,14.30
2014,09,12,08,34,14.40
2014,09,12,08,35,14.50
2014,09,12,08,36,14.50
2014,09,12,08,37,14.60
2014,09,12,08,38,14.70
2014,09,12,08,39,14.80
2014,09,12,08,40,14.80
2014,09,12,08,41,14.80
2014,09,12,08,42,14.90
2014,09,12,08,43,15.00
2014,09,12,08,44,15.00
2014,09,12,08,45,15.10
2014,09,12,08,46,15.20
2014,09,12,08,47,15.30
2014,09,12,08,48,15.40
2014,09,12,08,49,15.50
2014,09,12,08,50,15.60
2014,09,12,08,51,15.60
2014,09,12,08,52,15.80
2014,09,12,08,53,15.80
2014,09,12,08,54,15.90
2014,09,12,08,55,16.00
2014,09,12,08,56,16.10
2014,09,12,08,57,16.10
2014,09,12,08,58,16.20
2014,09,12,08,59,16.30
2014,09,12,09,00,16.30
2014,09,12,09,01,16.30
2014,09,12,09,02,16.40
2014,09,12,09,03,16.40
2014,09,12,09,04,16.40
2014,09,12,09,05,16.40
2014,09,12,09,06,16.50
2014,09,12,09,07,16.60
2014,09,12,09,08,16.70
2014,09,12,09,09,16.70
2014,09,12,09,10,16.70
2014,09,12,09,11,16.70
2014,09,12,09,12,16.80
2014,09,12,09,13,16.80
2014,09,12,09,14,16.80
2014,09,12,09,15,16.90
2014,09,12,09,16,16.90
2014,09,12,09,17,16.90
2014,09,12,09,18,16.90
2014,09,12,09,19,17.00
2014,09,12,09,20,17.00
2014,09,12,09,21,17.10
2014,09,12,09,22,17.10
2014,09,12,09,23,17.10
2014,09,12,09,24,17.10
2014,09,12,09,25,17.10
2014,09,12,09,26,17.20
2014,09,12,09,27,17.20
2014,09,12,09,28,17.20
2014,09,12,09,29,17.20
2014,09,12,09,30,17.20
2014,09,12,09,31,17.30
2014,09,12,09,32,17.30
2014,09,12,09,33,17.40
2014,09,12,09,34,17.40
2014,09,12,09,35,17.40
2014,09,12,09,36,17.50
2014,09,12,09,37,17.50
2014,09,12,09,38,17.60
2014,09,12,09,39,17.60
2014,09,12,09,40,17.60
2014,09,12,09,41,17.60
2014,09,12,09,42,17.60
2014,09,12,09,43,17.60
2014,09,12,09,44,17.70
2014,09,12,09,45,17.70
2014,09,12,09,46,17.80
2014,09,12,09,47,17.80
2014,09,12,09,48,17.80
2014,09,12,09,49,17.80
2014,09,12,09,50,17.80
2014,09,12,09,51,17.80
2014,09,12,09,52,17.80
2014,09,12,09,53,17.80
2014,09,12,09,54,17.80
2014,09,12,09,55,17.90
2014,09,12,09,56,17.90
2014,09,12,09,57,17.90
2014,09,12,09,58,18.00
2014,09,12,09,59,18.10
2014,09,12,10,00,18.20
2014,09,12,10,01,18.20
2014,09,12,10,02,18.20
2014,09,12,10,03,18.30
2014,09,12,10,04,18.30
2014,09,12,10,05,18.30
2014,09,12,10,06,18.30
2014,09,12,10,07,18.30
2014,09,12,10,08,18.30
2014,09,12,10,09,18.20
2014,09,12,10,10,18.20
2014,09,12,10,11,18.20
2014,09,12,10,12,18.30
2014,09,12,10,13,18.30
2014,09,12,10,14,18.30
2014,09,12,10,15,18.30
2014,09,12,10,16,18.30
2014,09,12,10,17,18.40
2014,09,12,10,18,18.40
2014,09,12,10,19,18.50
2014,09,12,10,20,18.50
2014,09,12,10,21,18.50
2014,09,12,10,22,18.60
2014,09,12,10,23,18.70
2014,09,12,10,24,18.70
2014,09,12,10,25,18.70
2014,09,12,10,26,18.70
2014,09,12,10,27,18.70
2014,09,12,10,28,18.70
2014,09,12,10,29,18.80
2014,09,12,10,30,18.80
2014,09,12,10,31,18.90
2014,09,12,10,32,19.00
2014,09,12,10,33,19.10
2014,09,12,10,34,19.10
2014,09,12,10,35,19.10
2014,09,12,10,36,19.10
2014,09,12,10,37,19.10
2014,09,12,10,38,19.10
2014,09,12,10,39,19.10
2014,09,12,10,40,19.10
2014,09,12,10,41,19.20
2014,09,12,10,42,19.30
2014,09,12,10,43,19.30
2014,09,12,10,44,19.40
2014,09,12,10,45,19.40
2014,09,12,10,46,19.50
2014,09,12,10,47,19.60
2014,09,12,10,48,19.70
2014,09,12,10,49,19.80
2014,09,12,10,50,19.90
2014,09,12,10,51,19.90
2014,09,12,10,52,19.90
2014,09,12,10,53,19.90
2014,09,12,10,54,19.90
2014,09,12,10,55,19.80
2014,09,12,10,56,19.80
2014,09,12,10,57,19.80
2014,09,12,10,58,19.80
2014,09,12,10,59,19.80
2014,09,12,11,00,19.80
2014,09,12,11,01,19.80
2014,09,12,11,02,19.80
2014,09,12,11,03,19.90
2014,09,12,11,04,19.90
2014,09,12,11,05,19.90
2014,09,12,11,06,19.90
2014,09,12,11,07,19.90
2014,09,12,11,08,19.90
2014,09,12,11,09,19.90
2014,09,12,11,10,19.90
2014,09,12,11,11,19.90
2014,09,12,11,12,19.90
2014,09,12,11,13,19.90
2014,09,12,11,14,19.90
2014,09,12,11,15,20.00
2014,09,12,11,16,20.10
2014,09,12,11,17,20.10
2014,09,12,11,18,20.20
2014,09,12,11,19,20.20
2014,09,12,11,20,20.20
2014,09,12,11,21,20.30
2014,09,12,11,22,20.50
2014,09,12,11,23,20.50
2014,09,12,11,24,20.50
2014,09,12,11,25,20.40
2014,09,12,11,26,20.40
2014,09,12,11,27,20.50
2014,09,12,11,28,20.50
2014,09,12,11,29,20.50
2014,09,12,11,30,20.60
2014,09,12,11,31,20.50
2014,09,12,11,32,20.50
2014,09,12,11,33,20.40
2014,09,12,11,34,20.40
2014,09,12,11,35,20.50
2014,09,12,11,36,20.50
2014,09,12,11,37,20.50
2014,09,12,11,38,20.60
2014,09,12,11,39,20.60
2014,09,12,11,40,20.70
2014,09,12,11,41,20.80
2014,09,12,11,42,20.80
2014,09,12,11,43,20.90
2014,09,12,11,44,21.10
2014,09,12,11,45,21.20
2014,09,12,11,46,21.30
2014,09,12,11,47,21.50
2014,09,12,11,48,21.60
2014,09,12,11,49,21.70
2014,09,12,11,50,21.70
2014,09,12,11,51,21.80
2014,09,12,11,52,21.80
2014,09,12,11,53,21.80
2014,09,12,11,54,21.60
2014,09,12,11,55,21.60
2014,09,12,11,56,21.50
2014,09,12,11,57,21.40
2014,09,12,11,58,21.30
2014,09,12,11,59,21.30
2014,09,12,12,00,21.30
2014,09,12,12,01,21.30
2014,09,12,12,02,21.30
2014,09,12,12,03,21.30
2014,09,12,12,04,21.30
2014,09,12,12,05,21.30
2014,09,12,12,06,21.30
2014,09,12,12,07,21.30
2014,09,12,12,08,21.30
2014,09,12,12,09,21.30
2014,09,12,12,10,21.40
2014,09,12,12,11,21.40
2014,09,12,12,12,21.50
2014,09,12,12,13,21.60
2014,09,12,12,14,21.60
2014,09,12,12,15,21.70
2014,09,12,12,16,21.70
2014,09,12,12,17,21.90
2014,09,12,12,18,22.00
2014,09,12,12,19,22.10
2014,09,12,12,20,22.10
2014,09,12,12,21,22.10
2014,09,12,12,22,22.10
2014,09,12,12,23,22.10
2014,09,12,12,24,22.20
2014,09,12,12,25,22.10
2014,09,12,12,26,22.10
2014,09,12,12,27,22.10
2014,09,12,12,28,22.00
2014,09,12,12,29,22.00
2014,09,12,12,30,22.00
2014,09,12,12,31,22.00
2014,09,12,12,32,21.90
2014,09,12,12,33,21.90
2014,09,12,12,34,21.90
2014,09,12,12,35,22.00
2014,09,12,12,36,22.10
2014,09,12,12,37,22.00
2014,09,12,12,38,22.00
2014,09,12,12,39,22.00
2014,09,12,12,40,22.00
2014,09,12,12,41,22.10
2014,09,12,12,42,22.10
2014,09,12,12,43,22.00
2014,09,12,12,44,22.00
2014,09,12,12,45,21.90
2014,09,12,12,46,21.90
2014,09,12,12,47,21.90
2014,09,12,12,48,21.90
2014,09,12,12,49,21.90
2014,09,12,12,50,21.80
2014,09,12,12,51,21.70
2014,09,12,12,52,21.70
2014,09,12,12,53,21.80
2014,09,12,12,54,21.80
2014,09,12,12,55,21.90
2014,09,12,12,56,21.90
2014,09,12,12,57,22.00
2014,09,12,12,58,22.10
2014,09,12,12,59,22.20
2014,09,12,13,00,22.20
2014,09,12,13,01,22.10
2014,09,12,13,02,22.00
2014,09,12,13,03,21.90
2014,09,12,13,04,21.90
2014,09,12,13,05,22.00
2014,09,12,13,06,22.00
2014,09,12,13,07,22.10
2014,09,12,13,08,22.30
2014,09,12,13,09,22.40
2014,09,12,13,10,22.60
2014,09,12,13,11,22.70
2014,09,12,13,12,22.80
2014,09,12,13,13,22.90
2014,09,12,13,14,22.90
2014,09,12,13,15,22.80
2014,09,12,13,16,22.80
2014,09,12,13,17,22.80
2014,09,12,13,18,22.90
2014,09,12,13,19,22.90
2014,09,12,13,20,23.10
2014,09,12,13,21,23.30
2014,09,12,13,22,23.30
2014,09,12,13,23,23.40
2014,09,12,13,24,23.40
2014,09,12,13,25,23.40
2014,09,12,13,26,23.40
2014,09,12,13,27,23.40
2014,09,12,13,28,23.40
2014,09,12,13,29,23.30
2014,09,12,13,30,23.30
2014,09,12,13,31,23.30
2014,09,12,13,32,23.30
2014,09,12,13,33,23.30
2014,09,12,13,34,23.20
2014,09,12,13,35,23.20
2014,09,12,13,36,23.10
2014,09,12,13,37,23.10
2014,09,12,13,38,23.10
2014,09,12,13,39,23.20
2014,09,12,13,40,23.00
2014,09,12,13,41,22.90
2014,09,12,13,42,23.00
2014,09,12,13,43,23.10
2014,09,12,13,44,23.20
2014,09,12,13,45,23.30
2014,09,12,13,46,23.40
2014,09,12,13,47,23.60
2014,09,12,13,48,23.70
2014,09,12,13,49,23.70
2014,09,12,13,50,23.70
2014,09,12,13,51,23.90
2014,09,12,13,52,23.90
2014,09,12,13,53,23.80
2014,09,12,13,54,23.80
2014,09,12,13,55,23.80
2014,09,12,13,56,23.80
2014,09,12,13,57,23.80
2014,09,12,13,58,23.70
2014,09,12,13,59,23.70
2014,09,12,14,00,23.70
2014,09,12,14,01,23.70
2014,09,12,14,02,23.70
2014,09,12,14,03,23.80
2014,09,12,14,04,23.90
2014,09,12,14,05,24.00
2014,09,12,14,06,24.10
2014,09,12,14,07,24.10
2014,09,12,14,08,24.10
2014,09,12,14,09,24.10
2014,09,12,14,10,24.20
2014,09,12,14,11,24.10
2014,09,12,14,12,24.00
2014,09,12,14,13,23.70
2014,09,12,14,14,23.50
2014,09,12,14,15,23.40
2014,09,12,14,16,23.30
2014,09,12,14,17,23.20
2014,09,12,14,18,23.20
2014,09,12,14,19,23.10
2014,09,12,14,20,23.10
2014,09,12,14,21,23.00
2014,09,12,14,22,22.90
2014,09,12,14,23,22.90
2014,09,12,14,24,22.90
2014,09,12,14,25,22.90
2014,09,12,14,26,23.00
2014,09,12,14,27,23.10
2014,09,12,14,28,23.20
2014,09,12,14,29,23.30
2014,09,12,14,30,23.10
2014,09,12,14,31,23.10
2014,09,12,14,32,23.10
2014,09,12,14,33,23.10
2014,09,12,14,34,23.20
2014,09,12,14,35,23.20
2014,09,12,14,36,23.20
2014,09,12,14,37,23.20
2014,09,12,14,38,23.20
2014,09,12,14,39,23.20
2014,09,12,14,40,23.20
2014,09,12,14,41,23.10
2014,09,12,14,42,23.00
2014,09,12,14,43,22.90
2014,09,12,14,44,22.90
2014,09,12,14,45,22.90
2014,09,12,14,46,22.90
2014,09,12,14,47,22.90
2014,09,12,14,48,22.90
2014,09,12,14,49,22.80
2014,09,12,14,50,22.70
2014,09,12,14,51,22.60
2014,09,12,14,52,22.70
2014,09,12,14,53,22.80
2014,09,12,14,54,22.90
2014,09,12,14,55,22.90
2014,09,12,14,56,22.90
2014,09,12,14,57,22.90
2014,09,12,14,58,22.90
2014,09,12,14,59,22.90
2014,09,12,15,00,22.90
2014,09,12,15,01,22.80
2014,09,12,15,02,22.60
2014,09,12,15,03,22.50
2014,09,12,15,04,22.50
2014,09,12,15,05,22.40
2014,09,12,15,06,22.40
2014,09,12,15,07,22.50
2014,09,12,15,08,22.60
2014,09,12,15,09,22.70
2014,09,12,15,10,22.80
2014,09,12,15,11,22.90
2014,09,12,15,12,22.90
2014,09,12,15,13,22.70
2014,09,12,15,14,22.60
2014,09,12,15,15,22.50
2014,09,12,15,16,22.30
2014,09,12,15,17,22.20
2014,09,12,15,18,22.20
2014,09,12,15,19,22.20
2014,09,12,15,20,22.20
2014,09,12,15,21,22.20
2014,09,12,15,22,22.40
2014,09,12,15,23,22.50
2014,09,12,15,24,22.60
2014,09,12,15,25,22.70
2014,09,12,15,26,22.60
2014,09,12,15,27,22.50
2014,09,12,15,28,22.50
2014,09,12,15,29,22.50
2014,09,12,15,30,22.60
2014,09,12,15,31,22.70
2014,09,12,15,32,22.80
2014,09,12,15,33,22.90
2014,09,12,15,34,23.00
2014,09,12,15,35,23.10
2014,09,12,15,36,23.10
2014,09,12,15,37,23.20
2014,09,12,15,38,23.20
2014,09,12,15,39,23.30
2014,09,12,15,40,23.30
2014,09,12,15,41,23.30
2014,09,12,15,42,23.30
2014,09,12,15,43,23.30
2014,09,12,15,44,23.20
2014,09,12,15,45,23.20
2014,09,12,15,46,23.20
2014,09,12,15,47,23.30
2014,09,12,15,48,23.30
2014,09,12,15,49,23.30
2014,09,12,15,50,23.20
2014,09,12,15,51,23.10
2014,09,12,15,52,23.20
2014,09,12,15,53,23.30
2014,09,12,15,54,23.30
2014,09,12,15,55,23.40
2014,09,12,15,56,23.40
2014,09,12,15,57,23.50
2014,09,12,15,58,23.60
2014,09,12,15,59,23.60
2014,09,12,16,00,23.60
2014,09,12,16,01,23.60
2014,09,12,16,02,23.60
2014,09,12,16,03,23.60
2014,09,12,16,04,23.70
2014,09,12,16,05,23.70
2014,09,12,16,06,23.70
2014,09,12,16,07,23.70
2014,09,12,16,08,23.70
2014,09,12,16,09,23.60
2014,09,12,16,10,23.60
2014,09,12,16,11,23.60
2014,09,12,16,12,23.60
2014,09,12,16,13,23.60
2014,09,12,16,14,23.60
2014,09,12,16,15,23.60
2014,09,12,16,16,23.60
2014,09,12,16,17,23.70
2014,09,12,16,18,23.80
2014,09,12,16,19,23.90
2014,09,12,16,20,24.00
2014,09,12,16,21,24.10
2014,09,12,16,22,24.10
2014,09,12,16,23,24.20
2014,09,12,16,24,24.20
2014,09,12,16,25,24.30
2014,09,12,16,26,24.30
2014,09,12,16,27,24.30
2014,09,12,16,28,24.00
2014,09,12,16,29,23.80
2014,09,12,16,30,23.60
2014,09,12,16,31,23.30
2014,09,12,16,32,23.20
2014,09,12,16,33,23.10
2014,09,12,16,34,23.10
2014,09,12,16,35,23.10
2014,09,12,16,36,23.00
2014,09,12,16,37,22.90
2014,09,12,16,38,22.70
2014,09,12,16,39,22.50
2014,09,12,16,40,22.40
2014,09,12,16,41,22.50
2014,09,12,16,42,22.70
2014,09,12,16,43,22.80
2014,09,12,16,44,22.90
2014,09,12,16,45,23.00
2014,09,12,16,46,23.10
2014,09,12,16,47,23.10
2014,09,12,16,48,23.10
2014,09,12,16,49,23.20
2014,09,12,16,50,23.30
2014,09,12,16,51,23.20
2014,09,12,16,52,23.10
2014,09,12,16,53,23.00
2014,09,12,16,54,22.90
2014,09,12,16,55,22.90
2014,09,12,16,56,22.80
2014,09,12,16,57,22.80
2014,09,12,16,58,22.90
2014,09,12,16,59,22.90
2014,09,12,17,00,22.90
2014,09,12,17,01,22.90
2014,09,12,17,02,22.90
2014,09,12,17,03,22.90
2014,09,12,17,04,22.80
2014,09,12,17,05,22.60
2014,09,12,17,06,22.60
2014,09,12,17,07,22.60
2014,09,12,17,08,22.60
2014,09,12,17,09,22.70
2014,09,12,17,10,22.60
2014,09,12,17,11,22.60
2014,09,12,17,12,22.60
2014,09,12,17,13,22.60
2014,09,12,17,14,22.60
2014,09,12,17,15,22.60
2014,09,12,17,16,22.50
2014,09,12,17,17,22.60
2014,09,12,17,18,22.50
2014,09,12,17,19,22.50
2014,09,12,17,20,22.40
2014,09,12,17,21,22.40
2014,09,12,17,22,22.30
2014,09,12,17,23,22.40
2014,09,12,17,24,22.40
2014,09,12,17,25,22.50
2014,09,12,17,26,22.50
2014,09,12,17,27,22.60
2014,09,12,17,28,22.70